Regional Weather Roundup
Issued by NWS Sioux Falls, SD

Home | Current Version | Previous Version | Text Only | Print | Product List | Glossary Off
Versions: 1 2 3 4 5 6 7 8 9 10 11 12 13 14 15 16 17 18 19 20 21 22 23 24 25 26 27 28 29 30 31 32 33 34 35 36 37 38 39 40 41 42 43 44 45 46 47 48 49 50

000
ASUS43 KFSD 280110
RWRFSD

WEATHER ROUNDUP FOR SE SOUTH DAKOTA/SW MINNESOTA/NW IOWA
NATIONAL WEATHER SERVICE SIOUX FALLS SD
800 PM CDT SAT MAY 27 2017

NOTE: "FAIR" INDICATES FEW OR NO CLOUDS BELOW 12,000 FEET WITH NO
SIGNIFICANT WEATHER AND OR OBSTRUCTIONS TO VISIBILITY.


SDZ038>040-050-052>070-280200-
SOUTHEAST SOUTH DAKOTA

CITY           SKY/WX    TMP DP  RH WIND       PRES   REMARKS
BROOKINGS      PTCLDY    64  48  56 W7        29.91R
CHAMBERLAIN    CLOUDY    71  48  44 SW6       29.90S
HURON          MOCLDY    69  42  37 W8        29.85S
MADISON        FAIR      64  46  52 W7        29.91S
MITCHELL       CLOUDY    69  47  45 SW9       29.90S
SIOUX FALLS    CLOUDY    65  50  58 W3        29.91R
WINNER         FAIR      70  47  43 SW9       29.92S
YANKTON        CLOUDY    63  54  72 SW7       29.93S
$$

MNZ071-072-080-081-089-090-097-098-280200-
SOUTHWEST MINNESOTA

CITY           SKY/WX    TMP DP  RH WIND       PRES   REMARKS
FAIRMONT       CLEAR     68  43  40 CALM      29.89F
JACKSON        MOCLDY    64  48  55 CALM      29.91R
LUVERNE        CLOUDY    63  46  55 SW6       29.91S
MARSHALL       CLOUDY    68  47  46 W10       29.88R
MONTEVIDEO     CLOUDY    72  43  35 W7        29.84S
PIPESTONE      MOCLDY    64  43  45 NW6       29.91R
REDWOOD FALLS  CLOUDY    70  42  36 W9        29.86R
TRACY          CLOUDY    68  47  47 W3        29.89R
WINDOM         CLOUDY    66  46  48 SW5       29.90R
WORTHINGTON    LGT RAIN  64  49  57 W7        29.92R
$$

IAZ001>003-012>014-020>022-031-032-NEZ013-014-SDZ071-280200-
NORTHWEST IOWA

CITY           SKY/WX    TMP DP  RH WIND       PRES   REMARKS
CHEROKEE       CLOUDY    65  50  58 NW3       29.91S
DENISON        CLEAR     68  50  52 CALM      29.92R
ESTHERVILLE    PTCLDY    66  48  52 W5        29.89S
LE MARS        MOCLDY    64  50  59 W8        29.93S
ORANGE CITY    CLOUDY    64  54  68 W6        29.93S
SHELDON        CLOUDY    66  50  55 W7        29.90S
SIOUX CITY     CLOUDY    66  53  63 NW10      29.91S
SPENCER        CLOUDY    67  52  58 SW3       29.90S
STORM LAKE     MOCLDY    66  50  55 NW12      29.91S
$$

ABBREVIATIONS USED IN REMARKS
   TC - TEMPERATURE IN CELSIUS
  WCI - WIND CHILL INDEX
   HX - HEAT INDEX
  VSB - VISIBILITY





USA.gov is the U.S. government's official web portal to all federal, state and local government web resources and services.